Probability
26 42 84 100 100 100 100 100 100 100 100 100 100 100 100 100 100 100 100 100 100 97 94 97 97 94 94 87 94 94 90 97 94 97 97 87 97 97 97 81 84 74 77
45 55 94 100 100 100 100 100 100 100 100 100 100 100 100 100 100 100 100 100 100 100 100 97 94 90 94 87 87 87 84 94 87 90 87 90 84 87 84 77 84 90 90
58 65 68 100 100 100 100 100 100 100 100 100 100 100 100 100 100 100 100 97 100 97 97 94 90 90 90 90 90 87 84 90 94 94 94 77 71 87 81 87 90 87 87
65 77 68 97 100 100 100 100 100 100 100 100 100 100 97 97 97 100 100 100 97 94 94 90 90 84 90 87 84 84 84 90 90 87 65 32 39 77 77 94 90 90 87
74 81 90 100 100 100 100 100 100 100 100 100 100 100 100 100 100 100 100 100 100 97 90 87 87 84 87 90 87 81 81 77 87 77 42 39 71 81 81 84 84 90 87
68 74 87 100 100 100 100 100 100 100 100 100 100 100 97 97 97 97 97 97 97 94 90 87 84 81 81 84 84 84 87 90 94 55 42 52 55 90 81 81 74 81 84
68 68 77 97 97 97 94 94 94 97 100 97 97 97 97 94 94 94 90 90 94 94 87 81 84 87 84 84 84 87 87 90 87 52 58 61 65 84 81 74 68 71 77
71 74 81 94 94 90 90 90 94 94 94 94 90 90 84 90 94 94 90 90 87 90 87 84 84 87 87 87 81 77 71 81 58 42 52 61 90 84 77 74 71 68 68
71 74 74 81 94 90 94 94 94 94 90 90 87 87 84 84 84 84 84 84 81 84 84 77 77 77 87 87 87 87 81 77 48 61 52 65 74 81 81 74 77 68 71
61 71 84 77 81 87 87 81 81 81 81 81 81 77 74 74 77 81 81 84 77 77 74 71 68 81 84 84 84 81 84 77 45 39 52 65 65 74 77 71 68 74 71
65 68 68 71 77 74 71 74 77 71 71 74 71 68 65 68 52 61 55 61 68 71 68 68 71 71 68 74 77 84 81 58 39 52 77 71 71 77 77 77 74 77 71
74 71 68 74 71 68 58 68 68 68 68 68 68 68 65 65 61 48 55 58 61 68 61 61 65 58 61 61 68 77 52 48 52 55 74 58 68 68 61 71 71 68 74
77 71 65 68 74 71 65 65 68 65 65 68 68 68 68 61 58 55 58 58 58 45 58 48 58 58 42 48 55 48 45 42 42 48 58 61 61 58 58 61 65 68 65
68 68 68 68 71 68 65 65 68 65 65 65 65 61 58 65 65 61 65 52 48 52 48 42 52 42 42 39 29 32 35 45 52 55 61 48 48 52 58 58 58 58 58
58 58 68 71 74 74 71 68 65 65 65 65 65 58 58 58 55 55 58 61 58 48 39 48 39 39 45 23 29 23 32 29 39 35 48 45 45 52 52 52 48 55 58
61 58 65 71 68 68 71 71 65 65 61 52 52 52 45 48 45 48 48 55 52 42 45 52 42 39 32 29 26 19 23 16 39 45 48 35 35 42 45 45 48 55 52
58 61 58 55 61 65 61 58 58 55 52 45 48 39 35 39 42 39 35 45 45 35 39 39 29 35 32 29 26 26 26 35 35 39 35 42 39 39 39 35 39 35 35
52 58 52 42 52 58 58 52 45 35 35 32 29 29 29 32 32 42 42 39 39 39 39 35 32 29 29 35 35 26 23 29 35 29 29 35 35 26 35 32 32 26 26
42 42 45 39 45 48 45 45 32 32 32 23 26 26 29 29 23 26 32 35 32 32 32 19 23 23 26 23 26 23 23 23 26 10 13 19 26 32 32 29 13 13 16
42 39 32 32 29 35 26 26 23 23 23 19 19 26 23 26 23 23 23 29 29 26 26 23 19 26 26 23 13 10 13 16 16 13 10 10 10 13 10 10 23 16 13
29 32 32 29 26 23 29 26 19 13 16 13 16 19 19 16 13 19 23 26 23 23 19 16 16 19 16 16 10 3 6 6 13 16 10 10 6 6 10 6 6 13 13
29 29 29 26 23 23 19 13 13 16 13 13 6 10 10 13 13 6 16 19 19 23 19 13 13 16 16 10 13 6 0 3 13 0 6 6 6 3 3 0 3 6 6
29 26 26 23 23 23 16 10 10 13 10 6 6 10 10 6 6 10 10 10 13 13 16 13 13 10 10 6 13 10 6 0 3 0 3 3 3 3 3 3 3 3 6
26 26 26 19 19 16 13 10 10 13 6 10 10 10 6 6 6 6 6 10 13 13 13 10 6 10 3 3 0 3 6 6 0 0 3 3 3 3 3 3 3 6 6
23 23 19 19 16 16 16 19 16 16 10 6 6 6 6 6 6 6 6 6 6 10 10 10 10 6 3 3 0 0 0 3 3 3 0 3 3 3 3 3 3 3 3
23 23 19 19 19 16 13 13 16 13 13 13 10 6 6 6 6 6 6 6 6 6 6 6 6 3 3 3 3 6 0 3 10 6 3 3 3 3 3 3 6 6 3
Height
5917 5916 5916 5916 5915 5915 5914 5914 5913 5912 5911 5910 5909 5908 5908 5907 5906 5906 5905 5904 5904 5903 5903 5902 5902 5901 5901 5900 5899 5899 5898 5897 5897 5896 5895 5895 5894 5893 5893 5892 5891 5891 5890
5916 5915 5915 5914 5914 5913 5913 5912 5911 5910 5909 5909 5908 5907 5906 5906 5905 5904 5904 5903 5902 5902 5902 5901 5900 5900 5899 5899 5898 5898 5897 5896 5896 5895 5894 5893 5893 5892 5891 5891 5890 5890 5889
5914 5914 5913 5913 5912 5912 5911 5911 5910 5909 5908 5907 5906 5906 5905 5904 5904 5903 5902 5902 5901 5900 5900 5900 5899 5898 5898 5897 5897 5896 5895 5895 5894 5894 5893 5892 5891 5891 5890 5890 5889 5889 5888
5913 5912 5912 5911 5910 5910 5909 5909 5908 5907 5906 5905 5905 5904 5903 5902 5902 5901 5901 5900 5899 5898 5898 5897 5897 5896 5896 5895 5895 5894 5894 5893 5893 5892 5891 5890 5890 5889 5889 5888 5888 5887 5887
5911 5910 5910 5909 5909 5908 5907 5907 5906 5905 5904 5904 5903 5902 5901 5900 5900 5899 5898 5898 5897 5896 5896 5895 5895 5894 5893 5893 5892 5892 5892 5891 5891 5890 5890 5889 5888 5888 5887 5887 5886 5886 5885
5909 5908 5907 5907 5907 5906 5905 5904 5904 5903 5902 5901 5901 5900 5899 5898 5897 5896 5896 5895 5894 5894 5893 5893 5892 5892 5891 5891 5890 5890 5889 5889 5888 5888 5887 5887 5887 5886 5885 5885 5884 5884 5884
5907 5906 5905 5905 5904 5904 5903 5902 5901 5901 5900 5899 5898 5897 5897 5896 5894 5894 5893 5892 5892 5891 5890 5890 5889 5889 5888 5888 5887 5887 5886 5886 5886 5885 5885 5885 5885 5884 5883 5883 5882 5882 5881
5905 5904 5903 5902 5902 5901 5901 5900 5899 5898 5897 5896 5896 5895 5894 5893 5892 5891 5890 5889 5888 5888 5887 5887 5886 5886 5885 5885 5884 5884 5883 5883 5882 5882 5882 5882 5882 5881 5881 5880 5880 5879 5879
5903 5902 5901 5900 5899 5898 5898 5897 5896 5895 5894 5894 5893 5892 5891 5890 5889 5888 5887 5886 5885 5884 5884 5883 5882 5882 5882 5881 5881 5880 5880 5879 5879 5879 5878 5878 5878 5878 5878 5877 5877 5876 5876
5900 5900 5899 5898 5897 5895 5895 5894 5893 5892 5891 5891 5890 5889 5888 5886 5885 5884 5883 5882 5881 5881 5880 5879 5879 5878 5878 5877 5877 5876 5876 5875 5875 5875 5875 5875 5875 5875 5874 5874 5873 5873 5873
5898 5897 5896 5895 5894 5893 5892 5891 5890 5889 5888 5887 5886 5885 5884 5883 5881 5880 5879 5878 5877 5876 5876 5875 5874 5874 5873 5873 5872 5872 5871 5871 5870 5870 5870 5870 5870 5870 5870 5870 5869 5869 5869
5895 5894 5893 5892 5891 5890 5889 5888 5887 5886 5884 5883 5882 5881 5880 5879 5877 5876 5875 5874 5873 5872 5871 5870 5870 5869 5868 5868 5867 5867 5866 5866 5865 5865 5865 5865 5866 5866 5866 5865 5865 5865 5865
5892 5891 5890 5889 5888 5887 5885 5884 5883 5882 5880 5879 5878 5877 5876 5874 5873 5872 5871 5870 5869 5868 5867 5866 5865 5864 5863 5863 5862 5861 5861 5861 5860 5860 5860 5860 5860 5861 5861 5861 5861 5861 5861
5888 5887 5887 5886 5884 5883 5882 5881 5879 5878 5877 5875 5874 5873 5871 5870 5869 5867 5866 5865 5864 5863 5862 5861 5860 5859 5858 5857 5856 5856 5855 5855 5855 5855 5855 5855 5855 5856 5856 5856 5856 5856 5856
5885 5884 5883 5882 5881 5879 5878 5877 5875 5874 5872 5871 5870 5868 5867 5865 5864 5862 5861 5860 5858 5857 5856 5855 5854 5853 5853 5852 5851 5850 5850 5849 5849 5849 5849 5849 5850 5850 5850 5851 5851 5851 5851
5881 5880 5879 5878 5876 5875 5874 5872 5871 5869 5868 5866 5864 5863 5862 5860 5858 5857 5856 5854 5853 5852 5850 5849 5848 5847 5847 5846 5845 5844 5844 5843 5843 5843 5843 5843 5844 5844 5845 5845 5846 5846 5846
5877 5876 5875 5874 5872 5871 5870 5868 5866 5865 5863 5861 5859 5858 5856 5855 5853 5851 5849 5848 5847 5845 5844 5843 5842 5841 5840 5840 5839 5838 5838 5837 5837 5837 5837 5837 5837 5838 5839 5839 5840 5840 5841
5873 5872 5871 5870 5868 5867 5865 5863 5862 5859 5858 5856 5854 5852 5851 5849 5847 5844 5843 5841 5840 5838 5837 5836 5835 5834 5834 5833 5833 5832 5831 5831 5830 5830 5830 5831 5831 5832 5833 5833 5834 5834 5835
5870 5868 5867 5865 5863 5862 5860 5858 5856 5854 5852 5850 5848 5846 5844 5842 5840 5838 5836 5834 5832 5831 5829 5828 5827 5827 5827 5826 5826 5825 5824 5824 5824 5824 5824 5824 5825 5825 5826 5827 5827 5828 5829
5866 5864 5863 5861 5859 5856 5854 5852 5850 5848 5846 5844 5841 5839 5837 5835 5833 5831 5828 5826 5824 5823 5821 5820 5820 5820 5819 5819 5819 5818 5818 5817 5817 5817 5817 5818 5818 5819 5820 5820 5821 5822 5822
5861 5859 5858 5856 5854 5851 5849 5847 5844 5842 5840 5837 5835 5832 5830 5828 5826 5823 5820 5818 5816 5815 5813 5813 5812 5812 5812 5811 5811 5811 5811 5810 5810 5810 5811 5811 5812 5813 5813 5814 5814 5815 5816
5856 5855 5852 5850 5848 5846 5843 5840 5838 5835 5833 5830 5828 5825 5823 5820 5818 5815 5812 5810 5808 5806 5805 5804 5804 5804 5804 5804 5804 5803 5803 5804 5803 5803 5804 5805 5806 5806 5806 5807 5808 5808 5809
5852 5849 5847 5845 5843 5840 5837 5834 5831 5829 5826 5823 5821 5818 5816 5813 5810 5807 5804 5802 5800 5798 5797 5796 5796 5795 5796 5796 5796 5796 5796 5796 5796 5797 5797 5798 5799 5800 5800 5801 5801 5802 5802
5846 5844 5841 5839 5836 5834 5831 5828 5825 5822 5819 5816 5813 5810 5807 5805 5802 5799 5797 5794 5792 5790 5789 5788 5788 5788 5788 5788 5787 5788 5788 5788 5789 5790 5790 5791 5792 5793 5794 5794 5795 5795 5796
5840 5838 5836 5833 5831 5828 5825 5822 5819 5816 5812 5809 5805 5803 5800 5797 5794 5792 5789 5786 5784 5782 5781 5780 5780 5780 5780 5780 5780 5780 5780 5781 5781 5783 5784 5785 5786 5787 5787 5788 5789 5789 5790
5834 5832 5830 5827 5824 5822 5819 5815 5812 5809 5805 5802 5798 5795 5792 5789 5787 5784 5781 5779 5777 5775 5774 5773 5773 5772 5772 5772 5772 5772 5773 5774 5775 5776 5777 5778 5779 5780 5781 5782 5782 5783 5783
Wind_Speed
2 2 3 3 3 4 5 6 6 6 6 5 4 5 5 5 5 5 5 6 6 6 6 6 6 7 6 7 7 7 6 6 6 5 5 5 5 4 4 4 4 4 4
3 3 4 4 4 5 6 7 7 7 7 7 6 6 7 7 6 6 7 7 7 7 7 7 7 7 7 7 7 7 7 6 6 6 6 6 6 5 5 4 4 5 5
5 5 6 5 6 7 7 8 8 8 8 8 8 8 8 8 8 8 8 8 8 8 8 8 8 8 8 8 8 8 8 7 7 7 7 6 6 6 6 5 5 5 6
6 6 7 7 7 8 9 9 10 10 10 10 10 10 9 10 10 10 10 10 10 10 10 9 9 9 9 9 9 9 9 9 9 8 7 7 7 7 7 7 7 7 7
7 8 8 8 9 10 10 11 11 11 11 11 11 11 11 11 11 12 11 11 11 11 11 11 11 11 10 10 10 10 10 10 10 9 9 8 8 8 8 8 8 8 8
8 9 9 10 10 11 11 11 12 12 12 12 12 12 12 12 13 13 13 13 12 12 12 12 12 12 12 12 11 11 11 11 11 10 10 9 9 9 9 10 10 9 9
9 9 10 11 12 12 12 12 12 12 13 13 13 13 13 13 13 14 13 13 13 13 13 13 13 14 14 13 13 13 12 12 12 12 12 11 11 11 11 11 11 10 10
10 11 11 11 12 13 13 13 13 13 13 13 14 14 14 14 15 15 14 14 14 14 14 14 14 15 15 15 15 14 14 14 14 14 14 13 13 13 12 12 12 12 11
11 12 12 12 13 13 13 13 14 14 14 14 15 15 15 16 16 16 16 15 15 15 15 15 16 16 16 16 17 17 16 16 15 15 15 15 15 15 14 13 13 13 12
11 12 13 14 14 14 13 14 14 14 14 15 16 17 17 17 17 17 17 17 17 16 16 17 17 17 17 18 18 18 18 17 17 17 17 17 16 16 16 15 15 14 14
13 13 15 14 14 14 14 14 15 15 16 16 17 18 18 18 19 18 19 19 18 18 18 18 19 19 19 19 19 19 20 20 19 19 19 19 19 18 17 17 16 15 15
14 15 15 15 15 15 15 16 16 17 17 18 18 19 19 19 20 20 20 20 20 20 20 20 21 21 21 21 22 22 22 22 21 21 21 20 20 20 19 19 18 17 16
15 16 16 17 17 17 16 17 18 19 19 19 20 20 20 20 21 21 22 22 22 22 22 22 22 22 22 22 23 23 23 23 22 22 21 21 21 22 21 20 19 19 19
16 17 17 17 18 18 18 19 19 20 21 21 21 22 22 22 22 22 23 23 23 24 24 24 24 24 24 24 24 23 24 23 23 23 23 22 22 22 21 21 21 21 20
17 17 18 18 18 19 19 20 21 22 22 22 23 23 22 23 23 24 24 24 25 25 25 25 25 25 25 24 25 24 24 24 25 25 23 23 23 23 22 22 22 22 21
19 19 19 19 20 20 20 21 21 22 23 23 23 24 23 24 25 26 26 26 26 26 26 27 26 27 26 26 26 25 25 26 25 25 24 24 25 24 24 24 23 23 23
19 20 21 21 21 21 21 22 23 23 23 24 24 25 25 26 27 27 27 27 27 27 27 28 28 27 27 26 26 27 27 27 27 27 26 25 25 25 25 25 25 24 24
20 20 21 21 22 22 22 24 24 24 24 25 26 26 26 27 28 28 28 28 28 28 28 28 28 28 27 27 27 28 28 27 27 28 27 26 26 26 25 25 26 25 25
20 21 21 22 23 24 25 25 25 25 25 26 26 26 27 28 28 28 29 29 30 29 29 29 29 28 28 28 28 27 27 27 27 27 27 27 26 26 26 26 26 26 26
22 22 22 23 25 25 26 26 26 27 29 29 28 27 28 28 29 30 31 31 31 30 30 29 29 29 29 29 29 28 26 26 26 27 27 27 27 26 26 26 25 26 26
21 22 24 24 25 26 27 27 28 29 30 30 29 28 29 29 30 31 31 32 31 31 30 30 29 29 29 29 29 29 28 28 27 27 27 27 28 27 26 26 26 25 26
22 23 24 25 25 27 28 28 29 29 30 29 29 29 29 30 30 31 31 32 31 30 29 29 30 30 29 29 30 30 29 28 28 28 27 27 28 28 28 27 25 25 25
23 24 25 26 26 28 28 28 28 29 28 28 28 29 30 30 30 30 30 30 30 29 29 29 30 30 30 30 30 30 29 28 28 27 27 27 28 28 27 27 26 25 25
24 25 26 26 26 27 27 27 27 27 27 27 28 29 29 30 30 29 29 29 28 28 28 28 28 29 29 29 29 29 29 29 28 27 26 27 27 27 27 26 25 25 26
24 25 25 25 26 26 26 26 27 28 28 28 28 29 29 28 29 29 28 28 27 27 27 27 27 27 27 28 28 28 27 27 27 27 27 27 27 27 26 26 26 26 26
24 25 25 26 26 27 27 28 28 28 28 27 27 27 27 27 27 28 27 27 27 26 26 26 26 27 26 26 26 26 26 26 26 26 27 27 27 27 27 26 26 26 26
Wind_Direction
333 332 340 339 325 312 304 298 297 299 300 300 303 306 307 312 318 323 325 327 331 332 331 329 327 324 324 323 323 324 325 326 326 322 321 315 316 315 312 307 303 296 291
308 312 316 318 314 305 299 298 296 297 301 300 300 302 303 303 305 309 312 311 313 316 317 316 315 313 311 312 311 311 312 314 316 316 317 313 307 306 306 303 301 294 283
302 304 305 308 309 306 302 298 296 296 299 299 296 297 298 299 299 301 304 302 302 303 304 304 304 305 302 300 299 300 303 304 306 307 308 305 301 300 298 293 292 287 278
301 304 303 304 305 305 302 299 296 295 296 296 294 295 296 296 296 297 298 298 296 294 295 295 294 295 293 292 293 294 296 296 297 299 298 297 294 293 291 289 284 280 272
300 303 303 300 299 298 297 296 295 294 295 296 294 294 294 294 294 293 292 293 293 292 291 291 291 290 289 288 288 289 291 291 289 290 289 288 286 286 283 281 278 275 269
299 302 297 298 299 297 295 294 295 295 293 294 293 292 292 294 293 293 291 290 290 289 288 287 286 286 286 285 283 282 282 282 282 281 279 278 278 280 278 275 273 269 266
293 296 297 297 298 297 296 295 295 296 295 292 292 292 293 294 294 294 291 288 287 287 286 284 283 282 283 282 279 278 276 275 275 276 276 274 273 275 276 274 271 268 264
291 291 294 295 295 294 292 293 295 297 294 292 292 293 295 296 296 295 293 290 286 286 285 284 284 282 281 281 278 275 274 271 270 271 270 271 270 272 272 271 271 267 263
290 290 290 291 290 290 289 290 293 297 294 292 291 293 294 295 294 293 291 288 286 286 286 285 285 283 282 279 278 274 272 270 269 268 266 267 268 269 269 269 268 268 262
291 291 289 289 290 289 288 291 292 294 294 291 291 291 292 292 292 291 289 288 286 286 286 285 284 283 282 279 278 275 273 270 270 269 266 264 264 268 269 268 267 265 262
287 290 289 287 288 288 288 290 292 291 292 291 289 289 290 289 289 288 287 287 286 285 285 285 283 283 282 280 279 276 273 271 268 267 267 265 264 265 266 268 269 264 263
285 286 286 286 286 287 288 288 290 291 291 290 288 288 288 287 286 286 286 286 285 284 284 284 282 283 282 279 277 275 273 270 268 268 268 266 265 265 263 265 265 264 264
283 283 283 284 285 285 286 288 289 289 290 290 288 286 287 287 286 286 286 285 285 284 283 283 282 280 279 280 279 275 272 270 268 268 268 267 265 264 263 262 261 264 264
282 281 281 283 285 284 284 288 289 289 288 289 287 286 286 285 286 285 286 285 284 283 282 282 281 279 278 279 277 275 274 271 268 267 266 266 265 263 262 260 262 262 261
281 281 281 283 283 283 285 288 289 289 288 287 287 286 285 284 286 288 287 285 284 283 281 280 279 278 277 277 275 273 272 272 270 267 265 264 263 261 259 259 261 262 262
285 281 282 283 283 283 285 288 289 289 288 287 287 285 284 285 286 286 285 285 283 282 281 279 278 277 277 275 275 271 269 271 270 266 264 263 261 259 259 259 260 261 262
284 284 284 284 283 284 285 287 288 289 288 286 286 285 284 285 286 285 285 285 284 283 281 280 278 276 274 274 273 272 271 270 266 264 263 262 261 259 258 258 259 260 260
284 286 285 284 285 286 286 287 287 287 287 285 285 285 285 285 285 284 284 285 284 283 282 281 277 274 272 273 274 273 272 268 266 264 262 261 260 258 257 257 258 259 260
284 286 285 284 288 288 287 287 286 286 286 286 285 284 284 285 285 284 285 284 283 281 280 278 275 272 271 272 273 274 271 267 266 265 261 260 260 259 258 258 258 259 260
286 286 288 289 288 288 287 287 288 289 288 287 286 286 288 288 286 286 286 284 281 279 278 276 273 271 270 269 271 272 269 266 267 265 262 260 260 259 258 259 258 258 260
286 288 290 291 290 289 290 288 290 290 291 288 287 287 288 289 288 287 285 284 282 279 277 275 271 270 268 267 269 269 267 264 264 264 262 259 259 260 260 259 259 260 261
287 288 289 292 290 291 293 291 291 290 290 290 288 288 289 290 289 288 286 283 281 279 276 274 272 271 268 267 268 267 266 264 263 263 259 257 259 260 261 260 261 261 261
288 289 290 291 290 292 294 295 293 292 293 292 290 291 290 289 290 289 287 284 282 280 276 273 271 270 267 267 267 265 264 265 264 262 258 256 258 259 261 262 261 261 260
288 290 291 292 290 291 293 296 295 293 294 294 292 292 292 291 291 290 288 286 284 281 277 273 271 270 269 268 267 264 263 264 263 261 260 258 258 258 258 259 259 258 259
290 291 291 293 292 292 294 296 296 296 296 296 296 295 293 292 290 289 288 286 283 281 278 274 270 270 269 266 265 263 263 262 260 258 258 259 259 258 257 257 257 258 259
290 291 293 291 291 292 295 297 298 298 299 299 298 297 295 294 292 289 288 286 283 280 278 274 272 269 268 267 265 265 264 261 259 257 258 258 258 257 257 257 257 258 258